Location: El Escondido
(32.5111°N, 116.6697°W)
Time: 04:03:57
(UTC+00:00)

Daily predictions for brighter satellites

Satellite Brightness Start Highest point End
(mag) Time Altitude Azimuth Time Altitude Azimuth Time Altitude Azimuth
BREEZE-M R/B 3.4 00:53:10 10° NW 00:56:51 84° NE 01:06:40 10° SE
Cosmos 1939 Rocket 3.0 01:00:17 10° SSE 01:04:20 58° ENE 01:08:22 10° N
Nadezhda 4 Rocket 4.1 00:58:55 10° N 01:05:17 89° E 01:11:36 10° S
Cosmos 1812 3.9 01:03:13 10° SE 01:06:17 23° E 01:09:23 10° NE
USA 276 3.7 01:08:45 10° NNW 01:11:03 19° NNE 01:13:21 10° E
H-2A R/B 2.7 01:09:24 10° SE 01:14:01 33° ENE 01:18:33 10° N
CZ-4C R/B 4.2 01:08:58 10° N 01:14:08 19° NE 01:19:44 10° E
CZ-3B Rocket 4.4 01:13:42 10° SW 01:17:35 25° SSE 01:28:02 10° ESE
COSMO-SKYMED 1 3.3 01:14:08 10° NNE 01:18:03 33° E 01:21:57 10° SSE
Cosmos 1092 Rocket 4.0 01:14:10 10° N 01:20:29 67° E 01:26:44 10° SSE
FengYun 1-2 T 4.4 01:15:30 10° S 01:21:06 82° WSW 01:26:42 10° NNW
Cosmos 1656 4.0 01:17:13 10° NNW 01:22:46 73° WSW 01:28:22 10° SSE
Cosmos 1428 Rocket 4.5 01:18:24 10° N 01:24:27 61° E 01:30:33 10° SSE
Cosmos 1633 Rocket 4.3 01:24:47 10° NNE 01:28:04 21° ENE 01:31:22 10° SE
Cosmos 1602 3.6 01:25:47 10° N 01:29:38 72° E 01:33:29 10° SSE
Cosmos 841 Rocket 3.7 01:24:35 10° SSW 01:29:45 76° WNW 01:34:55 10° NNE
Cosmos 1782 2.9 01:25:50 10° S 01:29:49 82° W 01:33:50 10° N
Aurora 2 Rocket 4.3 01:28:19 10° WSW 01:32:44 37° S 01:38:49 10° ESE
Okean O Rocket 2.6 01:29:45 10° SE 01:33:22 25° ENE 01:37:01 10° NNE
Cosmos 1697 Rocket 2.6 01:30:07 10° NNW 01:35:42 67° ENE 01:41:16 10° SSE
Cosmos 1151 Rocket 3.1 01:31:55 10° S 01:36:06 55° E 01:40:20 10° NNE
Cosmos 1980 Rocket 2.7 01:34:35 10° N 01:39:42 34° ENE 01:44:45 10° SE
Cosmos 2369 4.0 01:34:37 10° N 01:40:07 45° ENE 01:45:32 10° SE
Cosmos 2279 Rocket 4.0 01:34:31 10° S 01:40:39 65° E 01:46:47 10° NNE
Cosmos 1937 Rocket 3.5 01:35:27 10° N 01:40:44 64° ENE 01:45:59 10° SSE
Cosmos 1627 Rocket 4.4 01:35:14 10° N 01:41:24 84° E 01:47:30 10° S
CZ-2D R/B 3.1 01:40:02 10° SSE 01:43:52 79° ENE 01:47:42 10° N
Cosmos 2082 Rocket 2.7 01:40:41 10° SSW 01:46:19 63° WNW 01:51:57 10° NNE
Cosmos 1328 Rocket 3.6 01:47:09 10° S 01:51:28 58° E 01:55:50 10° NNE
CZ-2C R/B 1.8 01:47:43 10° SW 01:51:48 47° SSE 01:53:47 25° E
Cosmos 1666 Rocket 3.6 01:49:04 10° N 01:53:23 52° E 01:57:39 10° SSE
Cosmos 372 Rocket 4.1 01:48:49 10° N 01:53:56 52° ENE 01:59:01 10° SSE
Meteor 2-21 4.5 01:51:30 10° N 01:57:36 82° W 02:03:36 10° S
Meteor 1-27 Rocket 4.5 01:56:18 10° SSE 02:00:55 28° E 02:01:40 27° ENE
Cosmos 1500 3.5 01:58:37 10° NNW 02:02:19 64° W 02:05:58 10° S
Cosmos 2278 4.1 01:59:06 10° N 02:04:26 39° ENE 02:09:42 10° SE
SKYMED 2 4.0 02:01:51 10° N 02:06:08 61° WNW 02:10:24 10° SSW
ARGOS 3.1 02:01:31 10° SSE 02:06:51 64° ENE 02:12:13 10° N
Landsat 5 3.3 02:03:11 11° NNE 02:07:10 87° WNW 02:11:05 10° SSW
SL-08 RB Rocket 3.9 02:05:35 10° SSE 02:10:00 45° ENE 02:14:25 10° N
COSMOS 2455 4.5 02:07:41 10° WSW 02:12:55 31° WNW 02:18:12 10° N
ATLAS 5 CENTAUR R/B 3.8 02:07:53 10° SW 02:13:22 15° S 02:16:31 10° SSE
Meteor 2-6 Rocket 4.3 02:11:14 10° S 02:17:04 79° W 02:22:46 10° N
Meteor 2-15 4.3 02:11:47 10° S 02:17:54 81° E 02:24:01 10° N
GPS 2-04 Rocket1 2.7 02:16:39 10° WNW 02:20:45 64° N 02:21:03 62° NE
DEBRIS 2.6 02:20:21 10° WSW 02:22:31 58° NW 02:22:37 57° NNW
USA 229 DEB 4.4 02:15:43 10° NW 02:23:11 64° WSW 02:30:58 10° SSE
USA 229 4.4 02:15:48 10° NW 02:23:17 64° WSW 02:31:04 10° SSE
DMSP B5D2-2 4.0 02:21:26 29° NNE 02:24:04 65° ESE 02:29:13 10° S
H-2A R/B 3.5 02:26:39 25° SSE 02:26:39 25° SSE 02:28:50 10° SSE
CZ-4B R/B 3.5 02:20:17 10° S 02:25:42 67° WSW 02:31:04 10° NNW
CZ-4C R/B 3.4 02:25:26 45° NNW 02:26:07 56° WNW 02:29:25 10° SSW
Cosmos 1655 Rocket 4.0 02:19:57 10° N 02:26:13 57° E 02:32:25 10° SSE
deb Chang Zheng 4 4.1 02:24:01 10° S 02:28:14 58° WSW 02:32:29 10° NNW
USA 234 3.3 02:23:39 10° SE 02:30:13 82° SW 02:36:46 10° NW
Cosmos 1666 3.5 02:28:17 10° NNW 02:31:53 49° W 02:35:27 10° S
Cosmos 1515 Rocket 3.5 02:28:25 10° S 02:32:52 87° W 02:34:03 49° N
NOSS 3-3 (A) 4.2 02:29:24 10° S 02:33:55 40° SE 02:33:55 40° SE
NOSS 3-3 (C) 4.2 02:29:30 10° S 02:33:59 39° SE 02:33:59 39° SE
CZ-2C R/B 4.1 02:30:41 10° N 02:35:19 34° WNW 02:39:56 10° SW
Meteor 1-10 Rocket 4.4 02:30:40 10° SSW 02:36:29 74° W 02:41:51 12° N
X-37B 2.8 02:36:34 10° WSW 02:37:48 23° WSW 02:37:48 23° WSW
BREEZE-M DEB (TANK) 4.4 02:37:41 10° SSW 02:38:26 14° S 02:38:26 14° S
Cosmos 836 Rocket 4.4 02:41:36 10° SSW 02:46:54 86° ESE 02:47:13 79° NE
Feng Yun 1-1 Rocket 4.3 02:42:17 10° SSE 02:48:12 85° WSW 02:54:08 10° NNW
Cosmos 1867 3.5 02:46:25 10° SSW 02:51:23 71° SSE 02:51:23 71° SSE
H-2A R/B 4.4 02:49:17 10° SSW 02:53:23 23° W 02:57:26 10° NW
CZ-4C R/B 3.0 02:55:50 10° NNW 03:03:39 83° ENE 03:07:13 40° SE
USA 32 4.5 03:00:30 10° SSW 03:05:38 58° W 03:06:21 53° NW
Okean O Rocket 4.0 03:06:06 10° SSW 03:09:35 23° W 03:13:07 10° NW
Cosmos 1980 Rocket 4.2 03:18:53 10° NW 03:23:27 26° WSW 03:27:59 10° SSW
CZ-2C R/B 4.2 03:27:12 10° W 03:27:57 15° W 03:27:57 15° W
ATLAS 3B CENTAUR R/B 4.2 03:44:41 10° W 04:03:36 74° S 04:04:12 73° S
Cosmos 2369 Rocket 3.1 11:47:55 44° E 11:47:55 44° E 11:52:42 10° NE
